Regional Weather Roundup
Issued by NWS

Home | Current Version | Previous Version | Text Only | Print | Product List | Glossary On
Versions: 1 2 3 4 5 6 7 8 9 10 11 12 13 14 15 16 17 18 19 20 21 22 23 24 25 26 27 28 29 30 31 32 33 34 35 36 37 38 39 40 41 42 43 44 45 46 47 48 49 50
000
ASUS42 KFFC 121203
RWRGA
WEATHER ROUNDUP FOR GEORGIA
NATIONAL WEATHER SERVICE PEACHTREE CITY GA
700 AM EST FRI FEB 12 2016

NOTE: "FAIR" INDICATES FEW OR NO CLOUDS BELOW 12,000 FEET WITH NO
SIGNIFICANT WEATHER AND/OR OBSTRUCTIONS TO VISIBILITY.

* = USE WITH CAUTION. THE STATIONS MARKED WITH AN ASTERISK MAY NOT
REPORT WEATHER SUCH AS PRECIPITATION, FOG, OR THUNDER AND ARE NOT
QUALITY CONTROLLED BY NWS.

THE REMARK "TC" DENOTES TEMPERATURE READING IN DEGREES CELSIUS.

GAZ001>058-121300-
NORTH GEORGIA

CITY           SKY/WX    TMP DP  RH WIND       PRES   REMARKS
ATLANTA        CLOUDY    40  26  57 E6        30.13F
6HR MIN TEMP:  38; 6HR MAX TEMP:  42;

ATHENS         CLOUDY    35  25  66 NE6       30.15S WCI  30
6HR MIN TEMP:  31; 6HR MAX TEMP:  36;

CHAMBLEE       CLOUDY    39  26  59 CALM      30.13S
6HR MIN TEMP:  30; 6HR MAX TEMP:  39;

PEACHTREE CITY CLOUDY    34  32  92 CALM      30.13F
6HR MIN TEMP:  32; 6HR MAX TEMP:  35;

ROME           CLOUDY    35  25  66 N5        30.16R WCI  31
6HR MIN TEMP:  32; 6HR MAX TEMP:  35;

WEST ATLANTA   CLOUDY    35  29  78 CALM      30.14S
6HR MIN TEMP:  32; 6HR MAX TEMP:  36;

GAINESVILLE    CLOUDY    36  22  56 NE6       30.16R WCI  31
6HR MIN TEMP:  35; 6HR MAX TEMP:  37;

CARTERSVILLE   CLOUDY    32  28  85 CALM      30.17R
6HR MIN TEMP:  30; 6HR MAX TEMP:  34;



CITY           SKY/WX    TMP DP  RH WIND       PRES   REMARKS
DALTON*        CLOUDY    34  28  80 NW5       30.18R WCI  30
LAWRENCEVILLE* CLEAR     37  23  56 NE7       30.14  WCI  32
MARIETTA       CLOUDY    38  27  65 NE3       30.13R
BLAIRSVILLE*     N/A     32  13  45 CALM      30.11S
$$

GAZ059>098-102>109-121300-
CENTRAL GEORGIA

CITY           SKY/WX    TMP DP  RH WIND       PRES   REMARKS
AUGUSTA-BUSH   CLOUDY    38  35  89 CALM      30.16S
6HR MIN TEMP:  35; 6HR MAX TEMP:  40;

AUGUSTA-DANIEL CLOUDY    41  31  67 NW5       30.16R
6HR MIN TEMP:  41; 6HR MAX TEMP:  47;

COLUMBUS       CLOUDY    44  30  57 CALM      30.13R
6HR MIN TEMP:  41; 6HR MAX TEMP:  50;

MACON          CLOUDY    38  35  89 CALM      30.14R
6HR MIN TEMP:  35; 6HR MAX TEMP:  42;

ROBINS AFB     CLOUDY    39  35  84 NW3       30.14R


CITY           SKY/WX    TMP DP  RH WIND       PRES   REMARKS
LAGRANGE*      PTCLDY    40  35  82 CALM      30.12S
SYLVANIA*      PTCLDY    38  38 100 CALM      30.15S
MILLEDGEVILLE* PTCLDY    37  34  87 CALM      30.14S
$$

GAZ099>101-110>166-121300-
SOUTH GEORGIA

CITY           SKY/WX    TMP DP  RH WIND       PRES   REMARKS
SAVANNAH       CLOUDY    47  44  90 CALM      30.15S
6HR MIN TEMP:  39; 6HR MAX TEMP:  47;

VALDOSTA       PTCLDY    52  52 100 S5        30.19R
6HR MIN TEMP:  45; 6HR MAX TEMP:  53;

ALMA           CLOUDY    56  54  93 SW6       30.15R
6HR MIN TEMP:  52; 6HR MAX TEMP:  56;

ST SIMONS      CLOUDY    53  52  96 SW9       30.19R
6HR MIN TEMP:  51; 6HR MAX TEMP:  54;

FT STEWART     CLOUDY    51  48  90 CALM      30.12S
ALBANY         CLOUDY    58  55  90 SW7       30.16R
HUNTER AFB     CLOUDY    53  53 100 S7        30.13R
MOODY AFB      CLOUDY    57  54  89 SW9       30.16S
BRUNSWICK      CLOUDY    54  52  94 SW9       30.18F


CITY           SKY/WX    TMP DP  RH WIND       PRES   REMARKS
BAINBRIDGE*    CLEAR     54  54 100 SW7       30.18R
MOULTRIE*      CLOUDY    55  54  94 SW5       30.17R
VIDALIA*       CLOUDY    46  45  93 CALM      30.13S
WAYCROSS*      CLOUDY    59  58  96 SW8       30.17R
DOUGLAS*       CLOUDY    59  55  88 SW6       30.16S
$$



USA.gov is the U.S. government's official web portal to all federal, state and local government web resources and services.